[Date Prev][Date Next][Thread Prev][Thread Next] - [Date Index][Thread Index][Author Index]
2 Line ISS Keps 9-15
- Subject: [sarex] 2 Line ISS Keps 9-15
- From: "Dave Larsen PhD" <doc@xxxxxxxxxxx>
- Date: Wed, 15 Sep 2004 04:43:49 -0700
ISS
1 25544U 98067A 04259.29979236 .00023097 00000-0 19483-3 0 6926
2 25544 51.6349 225.7852 0005408 149.3050 347.3052 15.69677234332473
----
Via the sarex mailing list at AMSAT.ORG courtesy of AMSAT-NA.
To unsubscribe, send "unsubscribe sarex" to Majordomo@amsat.org
AMSAT Home